Weather History for Marion, IN

Change the Weather History Date:

Monday, February 17, 2014

  Actual Average (KMIE) Record (KMIE)
Temperature  
Mean Temperature 24 °F 30 °F  
Max Temperature 34 °F 38 °F 60 °F (1976)
Min Temperature 15 °F 22 °F -9 °F (1979)
Degree Days  
Heating Degree Days 42 35  
Month to date heating degree days 625  
Since 1 July heating degree days 4018  
Cooling Degree Days 0 0  
Month to date cooling degree days 0  
Year to date cooling degree days 0  
Moisture  
Dew Point 19 °F    
Average Humidity 82    
Maximum Humidity 99    
Minimum Humidity 66    
Precipitation  
Precipitation 0.08 in 0.09 in 1.19 in (1976)
Month to date precipitation 1.42  
Year to date precipitation 3.65  
Sea Level Pressure  
Sea Level Pressure 30.00 in    
Wind  
Wind Speed 11 mph (SE)    
Max Wind Speed 33 mph    
Max Gust Speed 38 mph    
Visibility 6 miles    
Events Snow    
T = Trace of Precipitation, MM = Missing Value Source: NWS Daily Summary

Daily Weather History Graph

Daily Weather History Graph

Search for Another Location

Airport:

Trip Planner

Search our weather history database for the weather conditions in past years. The results will help you decide how hot, cold, wet, or windy it might be!

Date:

Astronomy

Feb. 17, 2014 Rise Set
Actual Time 7:33 AM EST 6:20 PM EST
Civil Twilight 7:05 AM EST 6:48 PM EST
Nautical Twilight 6:33 AM EST 7:20 PM EST
Astronomical Twilight 6:02 AM EST 7:51 PM EST
Moon 9:15 PM EST (2/17) 8:33 AM EST (2/17)
Length of Visible Light 11h 42m
Length of Day
10h 46m
Waning Gibbous, 93% of the Moon is Illuminated
Feb 17
Waning Gibbous
Feb 22
Last Quarter
Mar 1
New
Mar 8
First Quarter
Mar 16
Full

Hourly Weather History & Observations

Time (EST) Temp. Windchill Dew Point Humidity Pressure Visibility Wind Dir Wind Speed Gust Speed Precip Events Conditions
12:15 AM 15.8 °F 10.2 °F 13.3 °F 90% 30.27 in 5.0 mi ESE 3.5 mph - N/A   Overcast
12:35 AM 16.5 °F 11.0 °F 13.8 °F 89% 30.27 in 5.0 mi SE 3.5 mph - N/A   Overcast
12:55 AM 15.8 °F 10.2 °F 13.1 °F 89% 30.28 in 5.0 mi SE 3.5 mph - N/A   Overcast
1:15 AM 16.5 °F - 14.0 °F 90% 30.30 in 4.0 mi Calm Calm - N/A   Overcast
1:35 AM 16.7 °F - 14.2 °F 90% 30.30 in 5.0 mi Calm Calm - N/A   Overcast
1:55 AM 16.5 °F - 13.8 °F 89% 30.31 in 5.0 mi Calm Calm - N/A   Overcast
2:15 AM 16.7 °F - 14.2 °F 90% 30.30 in 5.0 mi Calm Calm - N/A   Overcast
2:35 AM 17.6 °F 12.3 °F 15.3 °F 91% 30.29 in 4.0 mi ESE 3.5 mph - N/A   Overcast
2:55 AM 18.3 °F 9.1 °F 16.0 °F 91% 30.27 in 4.0 mi East 6.9 mph - N/A   Overcast
3:15 AM 18.9 °F 10.8 °F 16.5 °F 91% 30.26 in 5.0 mi ESE 5.8 mph - N/A   Mostly Cloudy
3:35 AM 18.5 °F 11.7 °F 16.0 °F 90% 30.26 in 7.0 mi East 4.6 mph - N/A   Scattered Clouds
3:55 AM 18.1 °F 10.0 °F 15.6 °F 90% 30.26 in 5.0 mi East 5.8 mph - N/A   Clear
4:15 AM 18.3 °F 9.1 °F 15.6 °F 89% 30.26 in 7.0 mi ESE 6.9 mph - N/A   Clear
4:35 AM 19.0 °F 9.0 °F 15.8 °F 87% 30.25 in 7.0 mi ESE 8.1 mph - N/A   Scattered Clouds
4:55 AM 19.4 °F 8.6 °F 16.2 °F 87% 30.25 in 5.0 mi ESE 9.2 mph - N/A   Mostly Cloudy
5:15 AM 19.4 °F 7.2 °F 15.6 °F 85% 30.25 in 7.0 mi SE 11.5 mph - N/A   Mostly Cloudy
5:35 AM 19.4 °F 7.2 °F 14.5 °F 81% 30.25 in 7.0 mi SE 11.5 mph - N/A   Overcast
5:55 AM 19.4 °F 6.6 °F 13.6 °F 78% 30.25 in 10.0 mi SE 12.7 mph - N/A   Overcast
6:15 AM 19.4 °F 6.6 °F 13.1 °F 76% 30.24 in 10.0 mi SE 12.7 mph - N/A   Overcast
6:35 AM 19.6 °F 4.7 °F 13.1 °F 76% 30.22 in 10.0 mi ESE 17.3 mph 21.9 mph N/A   Overcast
6:55 AM 19.6 °F 4.7 °F 12.7 °F 75% 30.22 in 10.0 mi SE 17.3 mph - N/A   Overcast
7:15 AM 19.6 °F 4.3 °F 12.6 °F 74% 30.21 in 10.0 mi SE 18.4 mph 21.9 mph N/A   Scattered Clouds
7:35 AM 19.6 °F 5.2 °F 12.0 °F 72% 30.21 in 10.0 mi SE 16.1 mph 21.9 mph N/A   Mostly Cloudy
7:55 AM 19.8 °F 5.9 °F 11.8 °F 71% 30.21 in 10.0 mi SE 15.0 mph 21.9 mph N/A   Overcast
8:15 AM 20.1 °F 6.4 °F 11.7 °F 70% 30.21 in 10.0 mi SE 15.0 mph 23.0 mph N/A   Overcast
8:35 AM 20.1 °F 5.0 °F 11.7 °F 70% 30.20 in 10.0 mi SE 18.4 mph - N/A   Overcast
8:55 AM 20.1 °F 5.4 °F 11.8 °F 70% 30.19 in 10.0 mi SE 17.3 mph - N/A   Mostly Cloudy
9:15 AM 20.3 °F 5.2 °F 12.0 °F 70% 30.17 in 10.0 mi SE 18.4 mph 24.2 mph N/A   Overcast
9:35 AM 20.3 °F 5.2 °F 12.2 °F 71% 30.15 in 7.0 mi SE 18.4 mph - N/A   Overcast
9:55 AM 20.5 °F 5.9 °F 12.9 °F 73% 30.15 in 7.0 mi SE 17.3 mph 21.9 mph N/A   Overcast
10:15 AM 20.8 °F 5.9 °F 12.9 °F 71% 30.13 in 7.0 mi SE 18.4 mph 25.3 mph N/A   Overcast
10:35 AM 21.0 °F 7.1 °F 13.3 °F 72% 30.12 in 7.0 mi SE 16.1 mph 20.7 mph N/A   Overcast
10:55 AM 21.6 °F 6.1 °F 13.8 °F 72% 30.10 in 7.0 mi SE 20.7 mph - N/A   Overcast
11:15 AM 22.5 °F 8.5 °F 14.7 °F 72% 30.08 in 7.0 mi ESE 17.3 mph 21.9 mph N/A   Overcast
11:35 AM 23.2 °F 8.6 °F 15.3 °F 72% 30.07 in 10.0 mi ESE 19.6 mph 23.0 mph N/A   Overcast
11:55 AM 22.8 °F 7.0 °F 15.1 °F 72% 30.05 in 10.0 mi ESE 23.0 mph 27.6 mph N/A   Overcast
12:15 PM 23.0 °F 9.2 °F 15.1 °F 72% 30.02 in 10.0 mi ESE 17.3 mph 24.2 mph N/A   Overcast
12:35 PM 23.9 °F 11.7 °F 14.9 °F 69% 30.01 in 10.0 mi ESE 13.8 mph 18.4 mph N/A   Overcast
12:55 PM 24.1 °F 11.0 °F 15.6 °F 70% 29.97 in 7.0 mi SE 16.1 mph 25.3 mph N/A   Overcast
1:15 PM 24.4 °F 10.6 °F 16.2 °F 71% 29.95 in 10.0 mi SE 18.4 mph 23.0 mph N/A   Scattered Clouds
1:35 PM 25.2 °F 12.4 °F 16.7 °F 70% 29.93 in 10.0 mi SE 16.1 mph 23.0 mph N/A   Mostly Cloudy
1:55 PM 26.1 °F 13.1 °F 17.2 °F 69% 29.89 in 10.0 mi ESE 17.3 mph - N/A   Scattered Clouds
2:15 PM 26.6 °F 13.8 °F 17.6 °F 69% 29.85 in 7.0 mi ESE 17.3 mph 24.2 mph N/A   Mostly Cloudy
2:35 PM 27.0 °F 15.2 °F 17.2 °F 67% 29.80 in 10.0 mi East 15.0 mph 19.6 mph N/A   Overcast
2:55 PM 27.1 °F 15.4 °F 17.2 °F 66% 29.81 in 10.0 mi ESE 15.0 mph 19.6 mph N/A   Overcast
3:15 PM 26.8 °F 14.5 °F 17.6 °F 68% 29.77 in 4.0 mi East 16.1 mph 23.0 mph N/A   Haze
3:35 PM 26.6 °F 13.4 °F 18.5 °F 71% 29.74 in 2.5 mi East 18.4 mph 24.2 mph N/A Snow Light Snow
3:55 PM 26.4 °F 14.0 °F 20.3 °F 78% 29.74 in 2.0 mi East 16.1 mph 19.6 mph 0.02 in   Overcast
4:15 PM 26.2 °F 15.2 °F 21.2 °F 81% 29.74 in 2.5 mi ESE 12.7 mph - N/A Snow Light Snow
4:35 PM 26.1 °F 14.0 °F 21.4 °F 82% 29.73 in 1.0 mi ESE 15.0 mph - 0.01 in Snow Light Snow
4:55 PM 25.5 °F 13.3 °F 22.3 °F 88% 29.72 in 1.8 mi ESE 15.0 mph - 0.02 in   Overcast
5:15 PM 25.5 °F 15.5 °F 22.5 °F 88% 29.72 in 0.8 mi SE 10.4 mph - 0.01 in Snow Light Snow
5:35 PM 25.5 °F 15.5 °F 23.0 °F 90% 29.71 in 0.8 mi ESE 10.4 mph - 0.02 in Snow Light Snow
5:55 PM 25.7 °F 17.1 °F 23.7 °F 92% 29.66 in 0.5 mi ESE 8.1 mph - 0.03 in Snow Light Snow
6:15 PM 26.2 °F 19.6 °F 24.8 °F 94% 29.69 in 0.8 mi SE 5.8 mph - 0.01 in Snow Light Snow
6:35 PM 26.6 °F 21.2 °F 25.3 °F 95% 29.70 in 2.0 mi SSE 4.6 mph - 0.01 in   Overcast
6:55 PM 27.0 °F 20.5 °F 26.1 °F 96% 29.69 in 5.0 mi South 5.8 mph - 0.01 in   Overcast
7:15 PM 27.5 °F 18.6 °F 26.8 °F 97% 29.70 in 5.0 mi SW 9.2 mph - N/A   Overcast
7:35 PM 29.3 °F 16.2 °F 28.9 °F 99% 29.70 in 5.0 mi WSW 20.7 mph 24.2 mph N/A Snow Light Snow
7:55 PM 31.5 °F 17.4 °F 30.4 °F 96% 29.71 in 4.0 mi West 27.6 mph 31.1 mph N/A   Overcast
8:15 PM 31.1 °F 17.4 °F 29.5 °F 94% 29.72 in 3.0 mi West 25.3 mph 33.4 mph N/A   Overcast
8:35 PM 30.9 °F 16.9 °F 28.8 °F 92% 29.72 in 4.0 mi West 26.5 mph 32.2 mph N/A   Overcast
8:55 PM 30.7 °F 15.9 °F 27.9 °F 89% 29.74 in 2.5 mi West 29.9 mph 38.0 mph N/A Snow Light Snow
9:15 PM 30.6 °F 15.9 °F 27.5 °F 88% 29.75 in 4.0 mi West 28.8 mph 33.4 mph N/A   Overcast
9:35 PM 30.2 °F 15.4 °F 28.0 °F 92% 29.76 in 2.5 mi West 28.8 mph 34.5 mph N/A Snow Light Snow
10:15 PM 30.7 °F 17.5 °F 28.9 °F 93% 29.76 in 2.0 mi West 23.0 mph - N/A Snow Light Snow
10:35 PM 31.1 °F 18.0 °F 29.7 °F 94% 29.76 in 2.5 mi West 23.0 mph 29.9 mph N/A Snow Light Snow
10:55 PM 31.8 °F 18.1 °F 30.6 °F 95% 29.76 in 3.0 mi WSW 26.5 mph 32.2 mph N/A Snow Light Snow
11:15 PM 32.0 °F 18.9 °F 31.1 °F 96% 29.76 in 3.0 mi WSW 24.2 mph 29.9 mph N/A Snow Light Snow
11:35 PM 32.5 °F 18.8 °F 31.6 °F 96% 29.77 in 5.0 mi West 27.6 mph 34.5 mph N/A Snow Light Snow
11:55 PM 33.3 °F 18.7 °F 31.3 °F 92% 29.77 in 7.0 mi West 33.4 mph 38.0 mph N/A   Overcast